[[{"header":{"parameterUnit":"m.s-1","parameterCategory":1,"la1":30.2991,"la2":30.254,"lo1":-89.0895,"lo2":-89.0444,"dy":0.0017,"dx":0.0017,"nx":28,"ny":28,"refTime":"2023-07-28T09:00:00:Z","depth":0,"parameterNumber":2,"parameterNumberName":"U-component_of_WINDS"},"data":[0,0,0,0,0,0,0,0,0,0,0,0,0,0,0,0,0,0,0,0,0,0,0,0,0,0,0,0,0,0,0,0,0,0,0,0,0,0,0,0,0,0,0,0,0,0,0,0,0,0,0,0,0,0,0,0,0,0,0.5713,0.5713,0,0.5738,0.5738,0.5738,0.5749,0.5749,0.5749,0.5749,0.5773,0.5774,0.5775,0,0,0,0,0,0,0,0,0,0,0,0,0,0.5673,0.5673,0.5713,0.5713,0.5714,0.5738,0.5738,0.5738,0.5749,0.5749,0.5749,0.5749,0.5773,0.5774,0.5775,0,0,0,0,0,0,0,0,0,0,0,0,0,0.5693,0.5674,0.5713,0.5722,0.5723,0.5738,0.5738,0.5739,0.5749,0.5749,0.5749,0.5749,0.5773,0.5774,0.5775,0.5782,0,0,0.5778,0.5778,0,0,0,0,0,0,0,0,0.5692,0.5695,0.572,0.5721,0.5723,0.5741,0.5733,0.5753,0.5749,0.5739,0.5749,0.5749,0.5762,0.5764,0.5769,0.5783,0.5784,0.5778,0.5778,0.5779,0.5779,0,0,0,0,0,0,0,0.5691,0.5694,0.5723,0.5721,0.5722,0.5724,0.5727,0.5737,0.5751,0.574,0.5741,0.5744,0.5763,0.5768,0.5769,0.5784,0.5778,0.5779,0.5779,0.578,0.5804,0.5805,0,0,0,0,0,0,0.5688,0.5692,0.5722,0.5723,0.5707,0.5725,0.5728,0.5735,0.5751,0.5753,0.5744,0.5744,0.5766,0.5768,0.577,0.5779,0.5779,0.578,0.578,0.5804,0.5805,0.5805,0,0,0,0,0,0,0.5687,0.569,0.5721,0.5708,0.5712,0.5726,0.5733,0.5735,0.574,0.5754,0.5756,0.5747,0.5766,0.5769,0.5779,0.578,0.578,0.5781,0.5804,0.5804,0.5805,0.5798,0,0,0,0,0,0,0.5686,0.569,0.5693,0.5708,0.5713,0.573,0.5733,0.5736,0.5742,0.5743,0.5757,0.5759,0.5766,0.5777,0.578,0.5782,0.5782,0.5804,0.5804,0.5805,0.5798,0.5797,0.5797,0,0,0,0,0,0.5684,0.569,0.5694,0.5697,0.5717,0.573,0.5732,0.5741,0.5742,0.5745,0.5754,0.5758,0.578,0.5778,0.5781,0.5783,0.5804,0.5804,0.5804,0.5798,0.5797,0.5797,0,0,0,0,0,0,0.5675,0.5692,0.5696,0.5707,0.5717,0.5731,0.5736,0.5741,0.575,0.575,0.5761,0.5763,0.5772,0.5779,0.5777,0.5791,0.5792,0.5793,0.5786,0.5786,0.5786,0.5784,0.5783,0,0,0,0,0,0.5674,0.5683,0.5698,0.5706,0.5711,0.5722,0.5728,0.5734,0.5744,0.5748,0.5757,0.5767,0.5775,0.5781,0.579,0.5799,0.5801,0.5801,0.5801,0.5801,0.5801,0.5806,0.5806,0.5805,0.5805,0.5805,0,0,0.5672,0.5683,0.5688,0.5704,0.5712,0.5721,0.5726,0.5735,0.5741,0.575,0.576,0.5766,0.5777,0.5787,0.5791,0.5792,0.5802,0.5801,0.5801,0.5801,0.5806,0.5806,0.5806,0.5805,0.5805,0.5805,0,0,0.5674,0.5683,0.5691,0.5699,0.5711,0.5719,0.5721,0.5735,0.574,0.575,0.5757,0.5764,0.5779,0.5786,0.5792,0.5796,0.58,0.5798,0.5797,0.5801,0.5801,0.5801,0.5802,0.5803,0.5799,0.5799,0.5799,0,0.567,0.5684,0.5694,0.5702,0.5709,0.5718,0.5725,0.5732,0.5747,0.5751,0.5752,0.5771,0.5779,0.579,0.5791,0.5795,0.5797,0.5797,0.58,0.5801,0.5801,0.5802,0.5802,0.5798,0.5798,0.5798,0.5798,0,0.5678,0.5688,0.5692,0.5707,0.5714,0.5722,0.5732,0.5738,0.5743,0.575,0.576,0.577,0.5781,0.5784,0.5789,0.5796,0.5796,0.5799,0.58,0.5801,0.5802,0.5802,0.5798,0.5798,0.5798,0.5798,0,0,0.5675,0.5694,0.5696,0.5702,0.5717,0.5724,0.5731,0.5743,0.5747,0.5757,0.5763,0.5776,0.5778,0.5785,0.5791,0.5794,0.5796,0.5797,0.5797,0.5796,0.5804,0.5801,0.5802,0.5799,0.5799,0.58,0.5803,0,0.5678,0.5694,0.5703,0.5714,0.5722,0.573,0.5737,0.5746,0.5753,0.5761,0.5768,0.5776,0.5779,0.5783,0.5787,0.5795,0.5798,0.5795,0.5805,0.5805,0.5802,0.5803,0.58,0.5803,0.5803,0.5803,0.5803,0,0.5684,0.5694,0.5706,0.5719,0.5723,0.5729,0.574,0.5747,0.5757,0.5762,0.5769,0.5775,0.5783,0.5784,0.5795,0.5793,0.5797,0.5802,0.5802,0.5803,0.5804,0.5804,0.5804,0.5804,0.5804,0.5804,0.5804,0,0.568,0.5696,0.5706,0.5711,0.5726,0.573,0.5737,0.5747,0.5753,0.5762,0.5766,0.5775,0.578,0.5787,0.5796,0.5796,0.5806,0.5807,0.5809,0.5809,0.5811,0.5811,0.5812,0.5814,0.5814,0.5814,0.5814,0,0.5683,0.569,0.5704,0.571,0.5718,0.5728,0.5735,0.5742,0.5751,0.5758,0.5765,0.5771,0.5781,0.5789,0.5795,0.5803,0.5805,0.5809,0.5811,0.5808,0.5808,0.5811,0.5811,0.5814,0.5814,0.5814,0.5814,0,0.568,0.569,0.5701,0.5714,0.5718,0.5723,0.5734,0.574,0.5747,0.5755,0.5758,0.5769,0.5778,0.5786,0.5798,0.5802,0.581,0.5812,0.5807,0.5808,0.5809,0.5809,0.5813,0.5813,0.5815,0.5815,0.5815,0,0.5681,0.5687,0.5701,0.5706,0.5713,0.5721,0.5727,0.5737,0.5743,0.5754,0.5758,0.5768,0.5776,0.579,0.5798,0.5807,0.581,0.581,0.5811,0.5809,0.581,0.5809,0.581,0.581,0.581,0.581,0.581,0,0.5682,0.5687,0.5695,0.5706,0.5713,0.5721,0.573,0.5734,0.5745,0.5751,0.576,0.5766,0.5778,0.5788,0.5798,0.5804,0.5808,0.581,0.581,0.5808,0.5805,0.5807,0.5806,0.5809,0.5809,0.5809,0.5809,0.581,0.5681,0.5687,0.5697,0.5707,0.5714,0.5722,0.5728,0.5736,0.5744,0.5755,0.5759,0.5769,0.5778,0.5792,0.5798,0.5805,0.5806,0.5808,0.5808,0.5808,0.5808,0.5804,0.5807,0.5807,0.5807,0.5807,0.5807,0,0.5682,0.569,0.5698,0.571,0.5717,0.5721,0.5731,0.5737,0.5745,0.5754,0.5761,0.5772,0.5781,0.579,0.5799,0.5803,0.5805,0.5805,0.5805,0.5806,0.5806,0.5804,0.5803,0.5803,0.5803,0.5803,0.5803,0.5803,0.5684,0.5693,0.5699,0.5711,0.5718,0.5728,0.5733,0.574,0.5747,0.5758,0.5766,0.5772,0.5781,0.579,0.5799,0.5801,0.5804,0.5803,0.5806,0.5806,0.5806,0.5806,0.5805,0.5804,0.5804,0.5806,0.5806,0.5806]},{"header":{"parameterUnit":"m.s-1","parameterCategory":1,"la1":30.2991,"la2":30.254,"lo1":-89.0895,"lo2":-89.0444,"dy":0.0017,"dx":0.0017,"nx":28,"ny":28,"refTime":"2023-07-28T09:00:00:Z","depth":0,"parameterNumber":3,"parameterNumberName":"V-component_of_WINDS"},"data":[0,0,0,0,0,0,0,0,0,0,0,0,0,0,0,0,0,0,0,0,0,0,0,0,0,0,0,0,0,0,0,0,0,0,0,0,0,0,0,0,0,0,0,0,0,0,0,0,0,0,0,0,0,0,0,0,0,0,1.4278,1.4279,0,1.4325,1.4326,1.4326,1.4312,1.4311,1.431,1.4309,1.4355,1.4357,1.4359,0,0,0,0,0,0,0,0,0,0,0,0,0,1.4173,1.4175,1.4278,1.4279,1.428,1.4325,1.4326,1.4327,1.4312,1.4311,1.4309,1.4308,1.4354,1.4356,1.4359,0,0,0,0,0,0,0,0,0,0,0,0,0,1.4219,1.4176,1.4278,1.4278,1.4278,1.4325,1.4326,1.4327,1.4312,1.4311,1.4309,1.4308,1.4353,1.4356,1.4359,1.4409,0,0,1.4369,1.4371,0,0,0,0,0,0,0,0,1.4216,1.4223,1.4277,1.4278,1.4279,1.4311,1.4305,1.4354,1.4312,1.4299,1.4309,1.4307,1.4341,1.4345,1.4357,1.4411,1.4413,1.437,1.4371,1.4373,1.4374,0,0,0,0,0,0,0,1.4213,1.4221,1.4297,1.4278,1.4279,1.4274,1.4279,1.4315,1.4328,1.43,1.4299,1.4305,1.4341,1.4354,1.4358,1.4414,1.4369,1.4372,1.4374,1.4376,1.4508,1.451,0,0,0,0,0,0,1.421,1.4218,1.4295,1.4298,1.4243,1.4277,1.4283,1.4302,1.4327,1.433,1.4306,1.4304,1.435,1.4355,1.436,1.4418,1.4373,1.4376,1.4378,1.4507,1.4509,1.451,0,0,0,0,0,0,1.4208,1.4217,1.4294,1.4258,1.4267,1.4281,1.4303,1.4304,1.4317,1.4332,1.4334,1.4317,1.4349,1.4355,1.4397,1.442,1.4377,1.438,1.4505,1.4507,1.4509,1.4536,0,0,0,0,0,0,1.4205,1.4216,1.4236,1.4259,1.4269,1.4331,1.4304,1.4306,1.4323,1.432,1.4343,1.4345,1.4348,1.4392,1.44,1.4423,1.4383,1.4503,1.4506,1.4509,1.4533,1.4539,1.4544,0,0,0,0,0,1.4201,1.4242,1.4237,1.4247,1.4295,1.4332,1.4338,1.4341,1.4325,1.4344,1.4353,1.4345,1.4416,1.4396,1.4405,1.443,1.4501,1.4505,1.4508,1.4531,1.4538,1.4544,0,0,0,0,0,0,1.4222,1.4245,1.424,1.429,1.4309,1.4329,1.4354,1.4349,1.4372,1.4369,1.4371,1.4376,1.4418,1.4428,1.4406,1.4478,1.4456,1.4462,1.447,1.4477,1.4483,1.4479,1.4385,0,0,0,0,0,1.4232,1.4262,1.428,1.4322,1.4332,1.4341,1.4358,1.4358,1.4378,1.4386,1.4398,1.4417,1.4443,1.4461,1.4486,1.4535,1.4539,1.4556,1.4561,1.4566,1.4571,1.4595,1.4603,1.4522,1.4522,1.4522,0,0,1.4254,1.427,1.4289,1.4326,1.4341,1.437,1.4348,1.438,1.4401,1.439,1.443,1.4439,1.446,1.4505,1.4525,1.4515,1.4594,1.457,1.4574,1.4576,1.46,1.4607,1.4614,1.4524,1.4524,1.4524,0,0,1.4308,1.4324,1.436,1.4375,1.4398,1.4404,1.4412,1.4434,1.444,1.4479,1.4471,1.4496,1.4542,1.4556,1.457,1.4628,1.462,1.4636,1.4664,1.4689,1.4695,1.4701,1.472,1.4727,1.464,1.464,1.464,0,1.4332,1.4377,1.4379,1.4411,1.4427,1.4418,1.4454,1.4468,1.4498,1.4509,1.4497,1.4553,1.4566,1.4614,1.4628,1.4639,1.4648,1.4633,1.4694,1.47,1.4705,1.4723,1.4731,1.4642,1.4642,1.4642,1.4642,0,1.4404,1.4435,1.4461,1.449,1.4509,1.4543,1.4549,1.4567,1.4565,1.4572,1.4612,1.4627,1.4655,1.4666,1.4665,1.4713,1.4705,1.4694,1.4671,1.4714,1.4732,1.4739,1.4645,1.4644,1.4643,1.4643,0,0,1.4474,1.4503,1.4512,1.4525,1.4548,1.4572,1.4604,1.4631,1.4647,1.4667,1.4693,1.4732,1.472,1.4736,1.4735,1.4757,1.48,1.4742,1.4743,1.4752,1.4852,1.4861,1.4869,1.4795,1.4796,1.4797,1.485,0,1.453,1.4588,1.459,1.4642,1.467,1.4661,1.4689,1.4705,1.4712,1.4735,1.4742,1.4769,1.4753,1.4762,1.4782,1.479,1.482,1.4786,1.4818,1.4819,1.4813,1.4878,1.4888,1.4937,1.4857,1.4858,1.4859,0,1.4603,1.4625,1.4681,1.4699,1.471,1.4736,1.476,1.4783,1.4801,1.4804,1.482,1.4817,1.4848,1.4825,1.4867,1.4845,1.4857,1.4863,1.4865,1.4868,1.4842,1.4882,1.4953,1.496,1.487,1.4869,1.4868,0,1.4647,1.4691,1.4729,1.474,1.4763,1.4781,1.4791,1.4807,1.4823,1.4844,1.4854,1.4878,1.4891,1.4909,1.4911,1.4894,1.4953,1.4931,1.4956,1.4956,1.4969,1.4968,1.5042,1.4978,1.4978,1.4978,1.4977,0,1.4709,1.4743,1.4749,1.4773,1.481,1.4811,1.4848,1.4856,1.4871,1.4895,1.4888,1.491,1.4912,1.4935,1.4937,1.4971,1.4977,1.4979,1.4979,1.498,1.498,1.4988,1.4985,1.498,1.4979,1.4979,1.4978,0,1.4765,1.4771,1.4812,1.4829,1.4834,1.4861,1.4875,1.4897,1.4902,1.4933,1.494,1.4948,1.4974,1.4978,1.5009,1.501,1.5051,1.5047,1.5045,1.5044,1.5069,1.5066,1.5151,1.5162,1.5091,1.5092,1.5092,0,1.4804,1.483,1.485,1.4866,1.4877,1.4902,1.4918,1.4919,1.4936,1.4957,1.4976,1.5001,1.5022,1.5064,1.5072,1.5095,1.5092,1.512,1.5095,1.5094,1.5091,1.5089,1.5091,1.5124,1.5125,1.5126,1.5126,0,1.4872,1.4873,1.4897,1.4921,1.494,1.4959,1.4976,1.4989,1.4993,1.5011,1.5038,1.5054,1.5085,1.511,1.5132,1.5141,1.5134,1.5134,1.5141,1.5142,1.5139,1.514,1.5057,1.5132,1.5131,1.5131,1.5131,1.513,1.4921,1.4942,1.496,1.4985,1.4999,1.5015,1.5036,1.5043,1.5066,1.5092,1.509,1.512,1.5135,1.5164,1.5175,1.5197,1.5187,1.5198,1.52,1.5203,1.5205,1.5135,1.5201,1.52,1.52,1.52,1.52,0,1.4988,1.4998,1.5022,1.5046,1.5066,1.5058,1.5076,1.5093,1.5119,1.5134,1.5154,1.5184,1.5208,1.5217,1.524,1.5256,1.5253,1.5261,1.526,1.5262,1.5212,1.5203,1.5263,1.5263,1.5263,1.5263,1.5263,1.5263,1.5025,1.5061,1.5064,1.5106,1.5116,1.5145,1.5156,1.517,1.5182,1.5216,1.5236,1.5242,1.5254,1.5277,1.5298,1.53,1.5309,1.5319,1.5319,1.5272,1.5266,1.526,1.5252,1.5321,1.5321,1.5367,1.5368,1.5368]}]]